Year,Month,Day,Hour,Minute,Value (Times are PST for temperature in C)
2015,04,21,00,00,6.60
2015,04,21,00,01,7.40
2015,04,21,00,02,7.40
2015,04,21,00,03,7.40
2015,04,21,00,04,7.40
2015,04,21,00,05,7.40
2015,04,21,00,06,7.40
2015,04,21,00,07,7.40
2015,04,21,00,08,7.40
2015,04,21,00,09,7.40
2015,04,21,00,10,7.40
2015,04,21,00,11,7.40
2015,04,21,00,12,7.40
2015,04,21,00,13,7.40
2015,04,21,00,14,7.40
2015,04,21,00,15,7.40
2015,04,21,00,16,7.00
2015,04,21,00,17,7.00
2015,04,21,00,18,7.00
2015,04,21,00,19,7.00
2015,04,21,00,20,7.00
2015,04,21,00,21,7.00
2015,04,21,00,22,7.00
2015,04,21,00,23,7.00
2015,04,21,00,24,7.00
2015,04,21,00,25,7.00
2015,04,21,00,26,7.00
2015,04,21,00,27,7.00
2015,04,21,00,28,7.00
2015,04,21,00,29,7.00
2015,04,21,00,30,7.00
2015,04,21,00,31,6.90
2015,04,21,00,32,6.90
2015,04,21,00,33,6.90
2015,04,21,00,34,6.90
2015,04,21,00,35,6.90
2015,04,21,00,36,6.90
2015,04,21,00,37,6.90
2015,04,21,00,38,6.90
2015,04,21,00,39,6.90
2015,04,21,00,40,6.90
2015,04,21,00,41,6.90
2015,04,21,00,42,6.90
2015,04,21,00,43,6.90
2015,04,21,00,44,6.90
2015,04,21,00,45,6.90
2015,04,21,00,46,6.90
2015,04,21,00,47,6.90
2015,04,21,00,48,6.90
2015,04,21,00,49,6.90
2015,04,21,00,50,6.90
2015,04,21,00,51,6.90
2015,04,21,00,52,6.90
2015,04,21,00,53,6.90
2015,04,21,00,54,6.90
2015,04,21,00,55,6.90
2015,04,21,00,56,6.90
2015,04,21,00,57,6.90
2015,04,21,00,58,6.90
2015,04,21,00,59,6.90
2015,04,21,01,00,6.90
2015,04,21,01,01,6.80
2015,04,21,01,02,6.80
2015,04,21,01,03,6.80
2015,04,21,01,04,6.80
2015,04,21,01,05,6.80
2015,04,21,01,06,6.80
2015,04,21,01,07,6.80
2015,04,21,01,08,6.80
2015,04,21,01,09,6.80
2015,04,21,01,10,6.80
2015,04,21,01,11,6.80
2015,04,21,01,12,6.80
2015,04,21,01,13,6.80
2015,04,21,01,14,6.80
2015,04,21,01,15,6.80
2015,04,21,01,16,7.70
2015,04,21,01,17,7.70
2015,04,21,01,18,7.70
2015,04,21,01,19,7.70
2015,04,21,01,20,7.70
2015,04,21,01,21,7.70
2015,04,21,01,22,7.70
2015,04,21,01,23,7.70
2015,04,21,01,24,7.70
2015,04,21,01,25,7.70
2015,04,21,01,26,7.70
2015,04,21,01,27,7.70
2015,04,21,01,28,7.70
2015,04,21,01,29,7.70
2015,04,21,01,30,7.70
2015,04,21,01,31,9.70
2015,04,21,01,32,9.70
2015,04,21,01,33,9.70
2015,04,21,01,34,9.70
2015,04,21,01,35,9.70
2015,04,21,01,36,9.70
2015,04,21,01,37,9.70
2015,04,21,01,38,9.70
2015,04,21,01,39,9.70
2015,04,21,01,40,9.70
2015,04,21,01,41,9.70
2015,04,21,01,42,9.70
2015,04,21,01,43,9.70
2015,04,21,01,44,9.70
2015,04,21,01,45,9.70
2015,04,21,01,46,9.80
2015,04,21,01,47,9.80
2015,04,21,01,48,9.80
2015,04,21,01,49,9.80
2015,04,21,01,50,9.80
2015,04,21,01,51,9.80
2015,04,21,01,52,9.80
2015,04,21,01,53,9.80
2015,04,21,01,54,9.80
2015,04,21,01,55,9.80
2015,04,21,01,56,9.80
2015,04,21,01,57,9.80
2015,04,21,01,58,9.80
2015,04,21,01,59,9.80
2015,04,21,02,00,9.80
2015,04,21,02,01,9.40
2015,04,21,02,02,9.40
2015,04,21,02,03,9.40
2015,04,21,02,04,9.40
2015,04,21,02,05,9.40
2015,04,21,02,06,9.40
2015,04,21,02,07,9.40
2015,04,21,02,08,9.40
2015,04,21,02,09,9.40
2015,04,21,02,10,9.40
2015,04,21,02,11,9.40
2015,04,21,02,12,9.40
2015,04,21,02,13,9.40
2015,04,21,02,14,9.40
2015,04,21,02,15,9.40
2015,04,21,02,17,9.20
2015,04,21,02,18,9.20
2015,04,21,02,19,9.20
2015,04,21,02,20,9.20
2015,04,21,02,21,9.20
2015,04,21,02,22,9.20
2015,04,21,02,23,9.20
2015,04,21,02,24,9.20
2015,04,21,02,25,9.20
2015,04,21,02,26,9.20
2015,04,21,02,27,9.20
2015,04,21,02,28,9.20
2015,04,21,02,29,9.20
2015,04,21,02,30,9.20
2015,04,21,02,31,8.80
2015,04,21,02,32,8.80
2015,04,21,02,33,8.80
2015,04,21,02,34,8.80
2015,04,21,02,35,8.80
2015,04,21,02,36,8.80
2015,04,21,02,37,8.80
2015,04,21,02,38,8.80
2015,04,21,02,39,8.80
2015,04,21,02,40,8.80
2015,04,21,02,41,8.80
2015,04,21,02,42,8.80
2015,04,21,02,43,8.80
2015,04,21,02,44,8.80
2015,04,21,02,45,8.80
2015,04,21,02,47,9.20
2015,04,21,02,48,9.20
2015,04,21,02,49,9.20
2015,04,21,02,50,9.20
2015,04,21,02,51,9.20
2015,04,21,02,52,9.20
2015,04,21,02,53,9.20
2015,04,21,02,54,9.20
2015,04,21,02,55,9.20
2015,04,21,02,56,9.20
2015,04,21,02,57,9.20
2015,04,21,02,58,9.20
2015,04,21,02,59,9.20
2015,04,21,03,00,9.20
2015,04,21,03,01,9.00
2015,04,21,03,02,9.00
2015,04,21,03,03,9.00
2015,04,21,03,04,9.00
2015,04,21,03,05,9.00
2015,04,21,03,06,9.00
2015,04,21,03,07,9.00
2015,04,21,03,08,9.00
2015,04,21,03,09,9.00
2015,04,21,03,10,9.00
2015,04,21,03,11,9.00
2015,04,21,03,12,9.00
2015,04,21,03,13,9.00
2015,04,21,03,14,9.00
2015,04,21,03,15,9.00
2015,04,21,03,16,8.80
2015,04,21,03,17,8.80
2015,04,21,03,18,8.80
2015,04,21,03,19,8.80
2015,04,21,03,20,8.80
2015,04,21,03,21,8.80
2015,04,21,03,22,8.80
2015,04,21,03,23,8.80
2015,04,21,03,24,8.80
2015,04,21,03,25,8.80
2015,04,21,03,26,8.80
2015,04,21,03,27,8.80
2015,04,21,03,28,8.80
2015,04,21,03,29,8.80
2015,04,21,03,30,8.80
2015,04,21,03,31,8.60
2015,04,21,03,32,8.60
2015,04,21,03,33,8.60
2015,04,21,03,34,8.60
2015,04,21,03,35,8.60
2015,04,21,03,36,8.60
2015,04,21,03,37,8.60
2015,04,21,03,38,8.60
2015,04,21,03,39,8.60
2015,04,21,03,40,8.60
2015,04,21,03,41,8.60
2015,04,21,03,42,8.60
2015,04,21,03,43,8.60
2015,04,21,03,44,8.60
2015,04,21,03,45,8.60
2015,04,21,03,46,8.80
2015,04,21,03,47,8.80
2015,04,21,03,48,8.80
2015,04,21,03,49,8.80
2015,04,21,03,50,8.80
2015,04,21,03,51,8.80
2015,04,21,03,52,8.80
2015,04,21,03,53,8.80
2015,04,21,03,54,8.80
2015,04,21,03,55,8.80
2015,04,21,03,56,8.80
2015,04,21,03,57,8.80
2015,04,21,03,58,8.80
2015,04,21,03,59,8.80
2015,04,21,04,00,8.80
2015,04,21,04,01,8.50
2015,04,21,04,02,8.50
2015,04,21,04,03,8.50
2015,04,21,04,04,8.50
2015,04,21,04,05,8.50
2015,04,21,04,06,8.50
2015,04,21,04,07,8.50
2015,04,21,04,08,8.50
2015,04,21,04,09,8.50
2015,04,21,04,10,8.50
2015,04,21,04,11,8.50
2015,04,21,04,12,8.50
2015,04,21,04,13,8.50
2015,04,21,04,14,8.50
2015,04,21,04,15,8.50
2015,04,21,04,16,8.20
2015,04,21,04,17,8.20
2015,04,21,04,18,8.20
2015,04,21,04,19,8.20
2015,04,21,04,20,8.20
2015,04,21,04,21,8.20
2015,04,21,04,22,8.20
2015,04,21,04,23,8.20
2015,04,21,04,24,8.20
2015,04,21,04,25,8.20
2015,04,21,04,26,8.20
2015,04,21,04,27,8.20
2015,04,21,04,28,8.20
2015,04,21,04,29,8.20
2015,04,21,04,30,8.20
2015,04,21,04,31,8.40
2015,04,21,04,32,8.40
2015,04,21,04,33,8.40
2015,04,21,04,34,8.40
2015,04,21,04,35,8.40
2015,04,21,04,36,8.40
2015,04,21,04,37,8.40
2015,04,21,04,38,8.40
2015,04,21,04,39,8.40
2015,04,21,04,40,8.40
2015,04,21,04,41,8.40
2015,04,21,04,42,8.40
2015,04,21,04,43,8.40
2015,04,21,04,44,8.40
2015,04,21,04,45,8.40
2015,04,21,04,47,8.30
2015,04,21,04,48,8.30
2015,04,21,04,49,8.30
2015,04,21,04,50,8.30
2015,04,21,04,51,8.30
2015,04,21,04,52,8.30
2015,04,21,04,53,8.30
2015,04,21,04,54,8.30
2015,04,21,04,55,8.30
2015,04,21,04,56,8.30
2015,04,21,04,57,8.30
2015,04,21,04,58,8.30
2015,04,21,04,59,8.30
2015,04,21,05,00,8.30
2015,04,21,05,01,8.10
2015,04,21,05,02,8.10
2015,04,21,05,03,8.10
2015,04,21,05,04,8.10
2015,04,21,05,05,8.10
2015,04,21,05,06,8.10
2015,04,21,05,07,8.10
2015,04,21,05,08,8.10
2015,04,21,05,09,8.10
2015,04,21,05,10,8.10
2015,04,21,05,11,8.10
2015,04,21,05,12,8.10
2015,04,21,05,13,8.10
2015,04,21,05,14,8.10
2015,04,21,05,15,8.10
2015,04,21,05,17,8.10
2015,04,21,05,18,8.10
2015,04,21,05,19,8.10
2015,04,21,05,20,8.10
2015,04,21,05,21,8.10
2015,04,21,05,22,8.10
2015,04,21,05,23,8.10
2015,04,21,05,24,8.10
2015,04,21,05,25,8.10
2015,04,21,05,26,8.10
2015,04,21,05,27,8.10
2015,04,21,05,28,8.10
2015,04,21,05,29,8.10
2015,04,21,05,30,8.10
2015,04,21,05,31,7.90
2015,04,21,05,32,7.90
2015,04,21,05,33,7.90
2015,04,21,05,34,7.90
2015,04,21,05,35,7.90
2015,04,21,05,36,7.90
2015,04,21,05,37,7.90
2015,04,21,05,38,7.90
2015,04,21,05,39,7.90
2015,04,21,05,40,7.90
2015,04,21,05,41,7.90
2015,04,21,05,42,7.90
2015,04,21,05,43,7.90
2015,04,21,05,44,7.90
2015,04,21,05,45,7.90
2015,04,21,05,46,7.90
2015,04,21,05,47,7.90
2015,04,21,05,48,7.90
2015,04,21,05,49,7.90
2015,04,21,05,50,7.90
2015,04,21,05,51,7.90
2015,04,21,05,52,7.90
2015,04,21,05,53,7.90
2015,04,21,05,54,7.90
2015,04,21,05,55,7.90
2015,04,21,05,56,7.90
2015,04,21,05,57,7.90
2015,04,21,05,58,7.90
2015,04,21,05,59,7.90
2015,04,21,06,00,7.90
2015,04,21,06,01,7.90
2015,04,21,06,02,7.90
2015,04,21,06,03,7.90
2015,04,21,06,04,7.90
2015,04,21,06,05,7.90
2015,04,21,06,06,7.90
2015,04,21,06,07,7.90
2015,04,21,06,08,7.90
2015,04,21,06,09,7.90
2015,04,21,06,10,7.90
2015,04,21,06,11,7.90
2015,04,21,06,12,7.90
2015,04,21,06,13,7.90
2015,04,21,06,14,7.90
2015,04,21,06,15,7.90
2015,04,21,06,16,7.70
2015,04,21,06,17,7.70
2015,04,21,06,18,7.70
2015,04,21,06,19,7.70
2015,04,21,06,20,7.70
2015,04,21,06,21,7.70
2015,04,21,06,22,7.70
2015,04,21,06,23,7.70
2015,04,21,06,24,7.70
2015,04,21,06,25,7.70
2015,04,21,06,26,7.70
2015,04,21,06,27,7.70
2015,04,21,06,28,7.70
2015,04,21,06,29,7.70
2015,04,21,06,30,7.70
2015,04,21,06,31,7.60
2015,04,21,06,32,7.60
2015,04,21,06,33,7.60
2015,04,21,06,34,7.60
2015,04,21,06,35,7.60
2015,04,21,06,36,7.60
2015,04,21,06,37,7.60
2015,04,21,06,38,7.60
2015,04,21,06,39,7.60
2015,04,21,06,40,7.60
2015,04,21,06,41,7.60
2015,04,21,06,42,7.60
2015,04,21,06,43,7.60
2015,04,21,06,44,7.60
2015,04,21,06,45,7.60
2015,04,21,06,47,7.50
2015,04,21,06,48,7.50
2015,04,21,06,49,7.50
2015,04,21,06,50,7.50
2015,04,21,06,51,7.50
2015,04,21,06,52,7.50
2015,04,21,06,53,7.50
2015,04,21,06,54,7.50
2015,04,21,06,55,7.50
2015,04,21,06,56,7.50
2015,04,21,06,57,7.50
2015,04,21,06,58,7.50
2015,04,21,06,59,7.50
2015,04,21,07,00,7.50
2015,04,21,07,01,7.30
2015,04,21,07,02,7.30
2015,04,21,07,03,7.30
2015,04,21,07,04,7.30
2015,04,21,07,05,7.30
2015,04,21,07,06,7.30
2015,04,21,07,07,7.30
2015,04,21,07,08,7.30
2015,04,21,07,09,7.30
2015,04,21,07,10,7.30
2015,04,21,07,11,7.30
2015,04,21,07,12,7.30
2015,04,21,07,13,7.30
2015,04,21,07,14,7.30
2015,04,21,07,15,7.30
2015,04,21,07,16,7.30
2015,04,21,07,17,7.30
2015,04,21,07,18,7.30
2015,04,21,07,19,7.30
2015,04,21,07,20,7.30
2015,04,21,07,21,7.30
2015,04,21,07,22,7.30
2015,04,21,07,23,7.30
2015,04,21,07,24,7.30
2015,04,21,07,25,7.30
2015,04,21,07,26,7.30
2015,04,21,07,27,7.30
2015,04,21,07,28,7.30
2015,04,21,07,29,7.30
2015,04,21,07,30,7.30
2015,04,21,07,31,7.40
2015,04,21,07,32,7.40
2015,04,21,07,33,7.40
2015,04,21,07,34,7.40
2015,04,21,07,35,7.40
2015,04,21,07,36,7.40
2015,04,21,07,37,7.40
2015,04,21,07,38,7.40
2015,04,21,07,39,7.40
2015,04,21,07,40,7.40
2015,04,21,07,41,7.40
2015,04,21,07,42,7.40
2015,04,21,07,43,7.40
2015,04,21,07,44,7.40
2015,04,21,07,45,7.40
2015,04,21,07,46,7.10
2015,04,21,07,47,7.10
2015,04,21,07,48,7.10
2015,04,21,07,49,7.10
2015,04,21,07,50,7.10
2015,04,21,07,51,7.10
2015,04,21,07,52,7.10
2015,04,21,07,53,7.10
2015,04,21,07,54,7.10
2015,04,21,07,55,7.10
2015,04,21,07,56,7.10
2015,04,21,07,57,7.10
2015,04,21,07,58,7.10
2015,04,21,07,59,7.10
2015,04,21,08,00,7.10
2015,04,21,08,01,6.80
2015,04,21,08,02,6.80
2015,04,21,08,03,6.80
2015,04,21,08,04,6.80
2015,04,21,08,05,6.80
2015,04,21,08,06,6.80
2015,04,21,08,07,6.80
2015,04,21,08,08,6.80
2015,04,21,08,09,6.80
2015,04,21,08,10,6.80
2015,04,21,08,11,6.80
2015,04,21,08,12,6.80
2015,04,21,08,13,6.80
2015,04,21,08,14,6.80
2015,04,21,08,15,6.80
2015,04,21,08,16,6.60
2015,04,21,08,17,6.60
2015,04,21,08,18,6.60
2015,04,21,08,19,6.60
2015,04,21,08,20,6.60
2015,04,21,08,21,6.60
2015,04,21,08,22,6.60
2015,04,21,08,23,6.60
2015,04,21,08,24,6.60
2015,04,21,08,25,6.60
2015,04,21,08,26,6.60
2015,04,21,08,27,6.60
2015,04,21,08,28,6.60
2015,04,21,08,29,6.60
2015,04,21,08,30,6.60
2015,04,21,08,31,6.50
2015,04,21,08,32,6.50
2015,04,21,08,33,6.50
2015,04,21,08,34,6.50
2015,04,21,08,35,6.50
2015,04,21,08,36,6.50
2015,04,21,08,37,6.50
2015,04,21,08,38,6.50
2015,04,21,08,39,6.50
2015,04,21,08,40,6.50
2015,04,21,08,41,6.50
2015,04,21,08,42,6.50
2015,04,21,08,43,6.50
2015,04,21,08,44,6.50
2015,04,21,08,45,6.50
2015,04,21,08,46,6.70
2015,04,21,08,47,6.70
2015,04,21,08,48,6.70
2015,04,21,08,49,6.70
2015,04,21,08,50,6.70
2015,04,21,08,51,6.70
2015,04,21,08,52,6.70
2015,04,21,08,53,6.70
2015,04,21,08,54,6.70
2015,04,21,08,55,6.70
2015,04,21,08,56,6.70
2015,04,21,08,57,6.70
2015,04,21,08,58,6.70
2015,04,21,08,59,6.70
2015,04,21,09,00,6.70
2015,04,21,09,01,6.70
2015,04,21,09,02,6.70
2015,04,21,09,03,6.70
2015,04,21,09,04,6.70
2015,04,21,09,05,6.70
2015,04,21,09,06,6.70
2015,04,21,09,07,6.70
2015,04,21,09,08,6.70
2015,04,21,09,09,6.70
2015,04,21,09,10,6.70
2015,04,21,09,11,6.70
2015,04,21,09,12,6.70
2015,04,21,09,13,6.70
2015,04,21,09,14,6.70
2015,04,21,09,15,6.70
2015,04,21,09,16,6.90
2015,04,21,09,17,6.90
2015,04,21,09,18,6.90
2015,04,21,09,19,6.90
2015,04,21,09,20,6.90
2015,04,21,09,21,6.90
2015,04,21,09,22,6.90
2015,04,21,09,23,6.90
2015,04,21,09,24,6.90
2015,04,21,09,25,6.90
2015,04,21,09,26,6.90
2015,04,21,09,27,6.90
2015,04,21,09,28,6.90
2015,04,21,09,29,6.90
2015,04,21,09,30,6.90
2015,04,21,09,31,6.90
2015,04,21,09,32,6.90
2015,04,21,09,33,6.90
2015,04,21,09,34,6.90
2015,04,21,09,35,6.90
2015,04,21,09,36,6.90
2015,04,21,09,37,6.90
2015,04,21,09,38,6.90
2015,04,21,09,39,6.90
2015,04,21,09,40,6.90
2015,04,21,09,41,6.90
2015,04,21,09,42,6.90
2015,04,21,09,43,6.90
2015,04,21,09,44,6.90
2015,04,21,09,45,6.90
2015,04,21,09,46,6.60
2015,04,21,09,47,6.60
2015,04,21,09,48,6.60
2015,04,21,09,49,6.60
2015,04,21,09,50,6.60
2015,04,21,09,51,6.60
2015,04,21,09,52,6.60
2015,04,21,09,53,6.60
2015,04,21,09,54,6.60
2015,04,21,09,55,6.60
2015,04,21,09,56,6.60
2015,04,21,09,57,6.60
2015,04,21,09,58,6.60
2015,04,21,09,59,6.60
2015,04,21,10,00,6.60
2015,04,21,10,01,6.10
2015,04,21,10,02,6.10
2015,04,21,10,03,6.10
2015,04,21,10,04,6.10
2015,04,21,10,05,6.10
2015,04,21,10,06,6.10
2015,04,21,10,07,6.10
2015,04,21,10,08,6.10
2015,04,21,10,09,6.10
2015,04,21,10,10,6.10
2015,04,21,10,11,6.10
2015,04,21,10,12,6.10
2015,04,21,10,13,6.10
2015,04,21,10,14,6.10
2015,04,21,10,15,6.10
2015,04,21,10,16,6.10
2015,04,21,10,17,6.10
2015,04,21,10,18,6.10
2015,04,21,10,19,6.10
2015,04,21,10,20,6.10
2015,04,21,10,21,6.10
2015,04,21,10,22,6.10
2015,04,21,10,23,6.10
2015,04,21,10,24,6.10
2015,04,21,10,25,6.10
2015,04,21,10,26,6.10
2015,04,21,10,27,6.10
2015,04,21,10,28,6.10
2015,04,21,10,29,6.10
2015,04,21,10,30,6.10
2015,04,21,10,31,6.30
2015,04,21,10,32,6.30
2015,04,21,10,33,6.30
2015,04,21,10,34,6.30
2015,04,21,10,35,6.30
2015,04,21,10,36,6.30
2015,04,21,10,37,6.30
2015,04,21,10,38,6.30
2015,04,21,10,39,6.30
2015,04,21,10,40,6.30
2015,04,21,10,41,6.30
2015,04,21,10,42,6.30
2015,04,21,10,43,6.30
2015,04,21,10,44,6.30
2015,04,21,10,45,6.30
2015,04,21,10,46,6.60
2015,04,21,10,47,6.60
2015,04,21,10,48,6.60
2015,04,21,10,49,6.60
2015,04,21,10,50,6.60
2015,04,21,10,51,6.60
2015,04,21,10,52,6.60
2015,04,21,10,53,6.60
2015,04,21,10,54,6.60
2015,04,21,10,55,6.60
2015,04,21,10,56,6.60
2015,04,21,10,57,6.60
2015,04,21,10,58,6.60
2015,04,21,10,59,6.60
2015,04,21,11,00,6.60
2015,04,21,11,01,6.60
2015,04,21,11,02,6.60
2015,04,21,11,03,6.60
2015,04,21,11,04,6.60
2015,04,21,11,05,6.60
2015,04,21,11,06,6.60
2015,04,21,11,07,6.60
2015,04,21,11,08,6.60
2015,04,21,11,09,6.60
2015,04,21,11,10,6.60
2015,04,21,11,11,6.60
2015,04,21,11,12,6.60
2015,04,21,11,13,6.60
2015,04,21,11,14,6.60
2015,04,21,11,15,6.60
2015,04,21,11,16,6.60
2015,04,21,11,17,6.60
2015,04,21,11,18,6.60
2015,04,21,11,19,6.60
2015,04,21,11,20,6.60
2015,04,21,11,21,6.60
2015,04,21,11,22,6.60
2015,04,21,11,23,6.60
2015,04,21,11,24,6.60
2015,04,21,11,25,6.60
2015,04,21,11,26,6.60
2015,04,21,11,27,6.60
2015,04,21,11,28,6.60
2015,04,21,11,29,6.60
2015,04,21,11,30,6.60
2015,04,21,11,31,6.30
2015,04,21,11,32,6.30
2015,04,21,11,33,6.30
2015,04,21,11,34,6.30
2015,04,21,11,35,6.30
2015,04,21,11,36,6.30
2015,04,21,11,37,6.30
2015,04,21,11,38,6.30
2015,04,21,11,39,6.30
2015,04,21,11,40,6.30
2015,04,21,11,41,6.30
2015,04,21,11,42,6.30
2015,04,21,11,43,6.30
2015,04,21,11,44,6.30
2015,04,21,11,45,6.30
2015,04,21,11,46,5.40
2015,04,21,11,47,5.40
2015,04,21,11,48,5.40
2015,04,21,11,49,5.40
2015,04,21,11,50,5.40
2015,04,21,11,51,5.40
2015,04,21,11,52,5.40
2015,04,21,11,53,5.40
2015,04,21,11,54,5.40
2015,04,21,11,55,5.40
2015,04,21,11,56,5.40
2015,04,21,11,57,5.40
2015,04,21,11,58,5.40
2015,04,21,11,59,5.40
2015,04,21,12,00,5.40
2015,04,21,12,01,4.60
2015,04,21,12,02,4.60
2015,04,21,12,03,4.60
2015,04,21,12,04,4.60
2015,04,21,12,05,4.60
2015,04,21,12,06,4.60
2015,04,21,12,07,4.60
2015,04,21,12,08,4.60
2015,04,21,12,09,4.60
2015,04,21,12,10,4.60
2015,04,21,12,11,4.60
2015,04,21,12,12,4.60
2015,04,21,12,13,4.60
2015,04,21,12,14,4.60
2015,04,21,12,15,4.60
2015,04,21,12,16,3.90
2015,04,21,12,17,3.90
2015,04,21,12,18,3.90
2015,04,21,12,19,3.90
2015,04,21,12,20,3.90
2015,04,21,12,21,3.90
2015,04,21,12,22,3.90
2015,04,21,12,23,3.90
2015,04,21,12,24,3.90
2015,04,21,12,25,3.90
2015,04,21,12,26,3.90
2015,04,21,12,27,3.90
2015,04,21,12,28,3.90
2015,04,21,12,29,3.90
2015,04,21,12,30,3.90
2015,04,21,12,31,3.80
2015,04,21,12,32,3.80
2015,04,21,12,33,3.80
2015,04,21,12,34,3.80
2015,04,21,12,35,3.80
2015,04,21,12,36,3.80
2015,04,21,12,37,3.80
2015,04,21,12,38,3.80
2015,04,21,12,39,3.80
2015,04,21,12,40,3.80
2015,04,21,12,41,3.80
2015,04,21,12,42,3.80
2015,04,21,12,43,3.80
2015,04,21,12,44,3.80
2015,04,21,12,45,3.80
2015,04,21,12,46,3.50
2015,04,21,12,47,3.50
2015,04,21,12,48,3.50
2015,04,21,12,49,3.50
2015,04,21,12,50,3.50
2015,04,21,12,51,3.50
2015,04,21,12,52,3.50
2015,04,21,12,53,3.50
2015,04,21,12,54,3.50
2015,04,21,12,55,3.50
2015,04,21,12,56,3.50
2015,04,21,12,57,3.50
2015,04,21,12,58,3.50
2015,04,21,12,59,3.50
2015,04,21,13,00,3.50
2015,04,21,13,01,3.10
2015,04,21,13,02,3.10
2015,04,21,13,03,3.10
2015,04,21,13,04,3.10
2015,04,21,13,05,3.10
2015,04,21,13,06,3.10
2015,04,21,13,07,3.10
2015,04,21,13,08,3.10
2015,04,21,13,09,3.10
2015,04,21,13,10,3.10
2015,04,21,13,11,3.10
2015,04,21,13,12,3.10
2015,04,21,13,13,3.10
2015,04,21,13,14,3.10
2015,04,21,13,15,3.10
2015,04,21,13,16,3.10
2015,04,21,13,17,3.50
2015,04,21,13,18,3.50
2015,04,21,13,19,3.50
2015,04,21,13,20,3.50
2015,04,21,13,21,3.50
2015,04,21,13,22,3.50
2015,04,21,13,23,3.50
2015,04,21,13,24,3.50
2015,04,21,13,25,3.50
2015,04,21,13,26,3.50
2015,04,21,13,27,3.50
2015,04,21,13,28,3.50
2015,04,21,13,29,3.50
2015,04,21,13,30,3.50
2015,04,21,13,31,3.20
2015,04,21,13,32,3.20
2015,04,21,13,33,3.20
2015,04,21,13,34,3.20
2015,04,21,13,35,3.20
2015,04,21,13,36,3.20
2015,04,21,13,37,3.20
2015,04,21,13,38,3.20
2015,04,21,13,39,3.20
2015,04,21,13,40,3.20
2015,04,21,13,41,3.20
2015,04,21,13,42,3.20
2015,04,21,13,43,3.20
2015,04,21,13,44,3.20
2015,04,21,13,45,3.20
2015,04,21,13,47,3.00
2015,04,21,13,48,3.00
2015,04,21,13,49,3.00
2015,04,21,13,50,3.00
2015,04,21,13,51,3.00
2015,04,21,13,52,3.00
2015,04,21,13,53,3.00
2015,04,21,13,54,3.00
2015,04,21,13,55,3.00
2015,04,21,13,56,3.00
2015,04,21,13,57,3.00
2015,04,21,13,58,3.00
2015,04,21,13,59,3.00
2015,04,21,14,00,3.00
2015,04,21,14,01,3.00
2015,04,21,14,02,2.80
2015,04,21,14,03,2.80
2015,04,21,14,04,2.80
2015,04,21,14,05,2.80
2015,04,21,14,06,2.80
2015,04,21,14,07,2.80
2015,04,21,14,08,2.80
2015,04,21,14,09,2.80
2015,04,21,14,10,2.80
2015,04,21,14,11,2.80
2015,04,21,14,12,2.80
2015,04,21,14,13,2.80
2015,04,21,14,14,2.80
2015,04,21,14,15,2.80
2015,04,21,14,16,2.50
2015,04,21,14,17,2.50
2015,04,21,14,18,2.50
2015,04,21,14,19,2.50
2015,04,21,14,20,2.50
2015,04,21,14,21,2.50
2015,04,21,14,22,2.50
2015,04,21,14,23,2.50
2015,04,21,14,24,2.50
2015,04,21,14,25,2.50
2015,04,21,14,26,2.50
2015,04,21,14,27,2.50
2015,04,21,14,28,2.50
2015,04,21,14,29,2.50
2015,04,21,14,30,2.50
2015,04,21,14,31,2.50
2015,04,21,14,32,2.50
2015,04,21,14,33,2.20
2015,04,21,14,34,2.20
2015,04,21,14,35,2.20
2015,04,21,14,36,2.20
2015,04,21,14,37,2.20
2015,04,21,14,38,2.20
2015,04,21,14,39,2.20
2015,04,21,14,40,2.20
2015,04,21,14,41,2.20
2015,04,21,14,42,2.20
2015,04,21,14,43,2.20
2015,04,21,14,44,2.20
2015,04,21,14,45,2.20
2015,04,21,14,46,2.20
2015,04,21,14,47,1.60
2015,04,21,14,48,1.60
2015,04,21,14,49,1.60
2015,04,21,14,50,1.60
2015,04,21,14,51,1.60
2015,04,21,14,52,1.60
2015,04,21,14,53,1.60
2015,04,21,14,54,1.60
2015,04,21,14,55,1.60
2015,04,21,14,56,1.60
2015,04,21,14,57,1.60
2015,04,21,14,58,1.60
2015,04,21,14,59,1.60
2015,04,21,15,00,1.60
2015,04,21,15,01,1.60
2015,04,21,15,02,1.30
2015,04,21,15,03,1.30
2015,04,21,15,04,1.30
2015,04,21,15,05,1.30
2015,04,21,15,06,1.30
2015,04,21,15,07,1.30
2015,04,21,15,08,1.30
2015,04,21,15,09,1.30
2015,04,21,15,10,1.30
2015,04,21,15,11,1.30
2015,04,21,15,12,1.30
2015,04,21,15,13,1.30
2015,04,21,15,14,1.30
2015,04,21,15,15,1.30
2015,04,21,15,16,1.00
2015,04,21,15,17,1.00
2015,04,21,15,18,1.00
2015,04,21,15,19,1.00
2015,04,21,15,20,1.00
2015,04,21,15,21,1.00
2015,04,21,15,22,1.00
2015,04,21,15,23,1.00
2015,04,21,15,24,1.00
2015,04,21,15,25,1.00
2015,04,21,15,26,1.00
2015,04,21,15,27,1.00
2015,04,21,15,28,1.00
2015,04,21,15,29,1.00
2015,04,21,15,30,1.00
2015,04,21,15,32,0.80
2015,04,21,15,33,0.80
2015,04,21,15,34,0.80
2015,04,21,15,35,0.80
2015,04,21,15,36,0.80
2015,04,21,15,37,0.80
2015,04,21,15,38,0.80
2015,04,21,15,39,0.80
2015,04,21,15,40,0.80
2015,04,21,15,41,0.80
2015,04,21,15,42,0.80
2015,04,21,15,43,0.80
2015,04,21,15,44,0.80
2015,04,21,15,45,0.80
2015,04,21,15,46,0.80
2015,04,21,15,47,0.80
2015,04,21,15,48,0.80
2015,04,21,15,49,0.80
2015,04,21,15,50,0.80
2015,04,21,15,51,0.80
2015,04,21,15,52,0.80
2015,04,21,15,53,0.80
2015,04,21,15,54,0.80
2015,04,21,15,55,0.80
2015,04,21,15,56,0.80
2015,04,21,15,57,0.80
2015,04,21,15,58,0.80
2015,04,21,15,59,0.80
2015,04,21,16,00,0.80
2015,04,21,16,01,1.10
2015,04,21,16,02,1.10
2015,04,21,16,03,1.10
2015,04,21,16,04,1.10
2015,04,21,16,05,1.10
2015,04,21,16,06,1.10
2015,04,21,16,07,1.10
2015,04,21,16,08,1.10
2015,04,21,16,09,1.10
2015,04,21,16,10,1.10
2015,04,21,16,11,1.10
2015,04,21,16,12,1.10
2015,04,21,16,13,1.10
2015,04,21,16,14,1.10
2015,04,21,16,15,1.10
2015,04,21,16,16,1.10
2015,04,21,16,17,1.10
2015,04,21,16,18,1.10
2015,04,21,16,19,1.10
2015,04,21,16,20,1.10
2015,04,21,16,21,1.10
2015,04,21,16,22,1.10
2015,04,21,16,23,1.10
2015,04,21,16,24,1.10
2015,04,21,16,25,1.10
2015,04,21,16,26,1.10
2015,04,21,16,27,1.10
2015,04,21,16,28,1.10
2015,04,21,16,29,1.10
2015,04,21,16,30,1.10
2015,04,21,16,31,1.20
2015,04,21,16,32,1.20
2015,04,21,16,33,1.20
2015,04,21,16,34,1.20
2015,04,21,16,35,1.20
2015,04,21,16,36,1.20
2015,04,21,16,37,1.20
2015,04,21,16,38,1.20
2015,04,21,16,39,1.20
2015,04,21,16,40,1.20
2015,04,21,16,41,1.20
2015,04,21,16,42,1.20
2015,04,21,16,43,1.20
2015,04,21,16,44,1.20
2015,04,21,16,45,1.20
2015,04,21,16,46,1.10
2015,04,21,16,47,1.10
2015,04,21,16,48,1.10
2015,04,21,16,49,1.10
2015,04,21,16,50,1.10
2015,04,21,16,51,1.10
2015,04,21,16,52,1.10
2015,04,21,16,53,1.10
2015,04,21,16,54,1.10
2015,04,21,16,55,1.10
2015,04,21,16,56,1.10
2015,04,21,16,57,1.10
2015,04,21,16,58,1.10
2015,04,21,16,59,1.10
2015,04,21,17,00,1.10
2015,04,21,17,01,1.00
2015,04,21,17,02,1.00
2015,04,21,17,03,1.00
2015,04,21,17,04,1.00
2015,04,21,17,05,1.00
2015,04,21,17,06,1.00
2015,04,21,17,07,1.00
2015,04,21,17,08,1.00
2015,04,21,17,09,1.00
2015,04,21,17,10,1.00
2015,04,21,17,11,1.00
2015,04,21,17,12,1.00
2015,04,21,17,13,1.00
2015,04,21,17,14,1.00
2015,04,21,17,15,1.00
2015,04,21,17,16,0.90
2015,04,21,17,17,0.90
2015,04,21,17,18,0.90
2015,04,21,17,19,0.90
2015,04,21,17,20,0.90
2015,04,21,17,21,0.90
2015,04,21,17,22,0.90
2015,04,21,17,23,0.90
2015,04,21,17,24,0.90
2015,04,21,17,25,0.90
2015,04,21,17,26,0.90
2015,04,21,17,27,0.90
2015,04,21,17,28,0.90
2015,04,21,17,29,0.90
2015,04,21,17,30,0.90
2015,04,21,17,31,0.90
2015,04,21,17,32,0.90
2015,04,21,17,33,0.90
2015,04,21,17,34,0.90
2015,04,21,17,35,0.90
2015,04,21,17,36,0.90
2015,04,21,17,37,0.90
2015,04,21,17,38,0.90
2015,04,21,17,39,0.90
2015,04,21,17,40,0.90
2015,04,21,17,41,0.90
2015,04,21,17,42,0.90
2015,04,21,17,43,0.90
2015,04,21,17,44,0.90
2015,04,21,17,45,0.90
2015,04,21,17,46,0.90
2015,04,21,17,47,0.90
2015,04,21,17,48,0.90
2015,04,21,17,49,0.90
2015,04,21,17,50,0.90
2015,04,21,17,51,0.90
2015,04,21,17,52,0.90
2015,04,21,17,53,0.90
2015,04,21,17,54,0.90
2015,04,21,17,55,0.90
2015,04,21,17,56,0.90
2015,04,21,17,57,0.90
2015,04,21,17,58,0.90
2015,04,21,17,59,0.90
2015,04,21,18,00,0.90
2015,04,21,18,01,0.70
2015,04,21,18,02,0.70
2015,04,21,18,03,0.70
2015,04,21,18,04,0.70
2015,04,21,18,05,0.70
2015,04,21,18,06,0.70
2015,04,21,18,07,0.70
2015,04,21,18,08,0.70
2015,04,21,18,09,0.70
2015,04,21,18,10,0.70
2015,04,21,18,11,0.70
2015,04,21,18,12,0.70
2015,04,21,18,13,0.70